Time,TemperatureF,DewpointF,PressureIn,WindDirection,WindDirectionDegrees,WindSpeedMPH,WindSpeedGustMPH,Humidity,HourlyPrecipIn,Conditions,Clouds,dailyrainin,SoftwareType,DateUTC
2013-03-05 00:02:00,47.0,41.0,30.17,SSE,158,3.0,5.0,78,99.99,,,-99.99,,2013-03-05 05:02:00,
2013-03-05 00:12:00,47.0,41.0,30.17,SSE,158,3.0,5.0,78,99.99,,,-99.99,,2013-03-05 05:12:00,
2013-03-05 00:22:00,47.0,41.0,30.17,SSE,160,3.0,4.0,78,99.99,,,-99.99,,2013-03-05 05:22:00,
2013-03-05 00:32:00,47.0,41.0,30.16,SE,136,1.0,4.0,78,99.99,,,-99.99,,2013-03-05 05:32:00,
2013-03-05 00:42:00,47.0,41.0,30.16,SE,136,1.0,4.0,78,99.99,,,-99.99,,2013-03-05 05:42:00,
2013-03-05 00:52:00,46.0,40.0,30.16,South,172,2.0,4.0,79,99.99,,,-99.99,,2013-03-05 05:52:00,
2013-03-05 01:01:00,46.0,40.0,30.16,SSW,208,2.0,3.0,80,99.99,,,-99.99,,2013-03-05 06:01:00,
2013-03-05 01:11:00,46.0,40.0,30.16,SSW,208,2.0,3.0,80,99.99,,,-99.99,,2013-03-05 06:11:00,
2013-03-05 01:22:00,45.0,40.0,30.16,North,0,0.0,0.0,81,99.99,,,-99.99,,2013-03-05 06:22:00,
2013-03-05 01:32:00,44.0,39.0,30.15,North,0,0.0,0.0,83,99.99,,,-99.99,,2013-03-05 06:32:00,
2013-03-05 01:42:00,44.0,39.0,30.15,North,0,0.0,0.0,83,99.99,,,-99.99,,2013-03-05 06:42:00,
2013-03-05 01:52:00,44.0,39.0,30.15,North,0,0.0,0.0,84,99.99,,,-99.99,,2013-03-05 06:52:00,
2013-03-05 02:01:00,43.0,38.0,30.15,North,0,0.0,0.0,84,99.99,,,-99.99,,2013-03-05 07:01:00,
2013-03-05 02:11:00,43.0,38.0,30.15,North,0,0.0,0.0,84,99.99,,,-99.99,,2013-03-05 07:11:00,
2013-03-05 02:22:00,42.0,38.0,30.14,North,0,0.0,0.0,85,99.99,,,-99.99,,2013-03-05 07:22:00,
2013-03-05 02:31:00,41.0,37.0,30.14,SW,226,2.0,3.0,87,99.99,,,-99.99,,2013-03-05 07:31:00,
2013-03-05 02:41:00,41.0,37.0,30.14,SW,226,2.0,3.0,87,99.99,,,-99.99,,2013-03-05 07:41:00,
2013-03-05 02:52:00,41.0,37.0,30.14,West,260,2.0,3.0,87,99.99,,,-99.99,,2013-03-05 07:52:00,
2013-03-05 03:02:00,40.0,37.0,30.14,SW,231,4.0,5.0,88,99.99,,,-99.99,,2013-03-05 08:02:00,
2013-03-05 03:11:00,40.0,37.0,30.14,SW,231,4.0,5.0,88,99.99,,,-99.99,,2013-03-05 08:11:00,
2013-03-05 03:21:00,40.0,37.0,30.14,WSW,238,1.0,3.0,89,99.99,,,-99.99,,2013-03-05 08:21:00,
2013-03-05 03:31:00,40.0,37.0,30.15,WSW,240,0.0,2.0,89,99.99,,,-99.99,,2013-03-05 08:31:00,
2013-03-05 03:41:00,40.0,37.0,30.15,WSW,240,0.0,2.0,89,99.99,,,-99.99,,2013-03-05 08:41:00,
2013-03-05 03:52:00,39.0,36.0,30.15,WSW,239,2.0,3.0,90,99.99,,,-99.99,,2013-03-05 08:52:00,
2013-03-05 04:01:00,39.0,37.0,30.14,SSW,201,0.0,3.0,91,99.99,,,-99.99,,2013-03-05 09:01:00,
2013-03-05 04:11:00,39.0,37.0,30.14,SSW,200,3.0,5.0,92,99.99,,,-99.99,,2013-03-05 09:11:00,
2013-03-05 04:21:00,39.0,37.0,30.14,SSW,200,3.0,5.0,92,99.99,,,-99.99,,2013-03-05 09:21:00,
2013-03-05 04:31:00,40.0,38.0,30.14,SSW,204,4.0,5.0,94,99.99,,,-99.99,,2013-03-05 09:31:00,
2013-03-05 04:42:00,40.0,38.0,30.14,SSW,204,4.0,5.0,94,99.99,,,-99.99,,2013-03-05 09:42:00,
2013-03-05 04:52:00,40.0,39.0,30.14,SSW,198,4.0,6.0,95,99.99,,,-99.99,,2013-03-05 09:52:00,
2013-03-05 05:01:00,41.0,40.0,30.14,SSW,212,3.0,4.0,96,99.99,,,-99.99,,2013-03-05 10:01:00,
2013-03-05 05:11:00,41.0,40.0,30.14,SSW,212,3.0,4.0,96,99.99,,,-99.99,,2013-03-05 10:11:00,
2013-03-05 05:21:00,42.0,41.0,30.15,SSW,205,3.0,5.0,96,99.99,,,-99.99,,2013-03-05 10:21:00,
2013-03-05 05:32:00,42.0,41.0,30.15,SSW,211,3.0,4.0,96,99.99,,,-99.99,,2013-03-05 10:32:00,
2013-03-05 05:42:00,42.0,41.0,30.15,SSW,211,3.0,4.0,96,99.99,,,-99.99,,2013-03-05 10:42:00,
2013-03-05 05:52:00,43.0,42.0,30.16,SSW,210,3.0,4.0,96,99.99,,,-99.99,,2013-03-05 10:52:00,
2013-03-05 06:01:00,42.0,41.0,30.16,SSW,211,3.0,4.0,96,99.99,,,-99.99,,2013-03-05 11:01:00,
2013-03-05 06:11:00,42.0,41.0,30.16,SSW,212,3.0,4.0,96,99.99,,,-99.99,,2013-03-05 11:11:00,
2013-03-05 06:22:00,42.0,41.0,30.16,SSW,212,3.0,4.0,96,99.99,,,-99.99,,2013-03-05 11:22:00,
2013-03-05 06:32:00,42.0,41.0,30.16,SSW,208,3.0,4.0,96,99.99,,,-99.99,,2013-03-05 11:32:00,
2013-03-05 06:42:00,42.0,41.0,30.16,SSW,208,3.0,4.0,96,99.99,,,-99.99,,2013-03-05 11:42:00,
2013-03-05 06:52:00,42.0,41.0,30.16,SSW,211,0.0,2.0,96,99.99,,,-99.99,,2013-03-05 11:52:00,
2013-03-05 07:02:00,42.0,41.0,30.16,SW,214,2.0,4.0,96,99.99,,,-99.99,,2013-03-05 12:02:00,
2013-03-05 07:12:00,42.0,41.0,30.16,SW,214,2.0,4.0,96,99.99,,,-99.99,,2013-03-05 12:12:00,
2013-03-05 07:22:00,42.0,41.0,30.16,SSW,203,3.0,4.0,97,99.99,,,-99.99,,2013-03-05 12:22:00,
2013-03-05 07:32:00,43.0,42.0,30.16,SSW,210,3.0,4.0,98,99.99,,,-99.99,,2013-03-05 12:32:00,
2013-03-05 07:42:00,43.0,42.0,30.16,SSW,210,3.0,4.0,98,99.99,,,-99.99,,2013-03-05 12:42:00,
2013-03-05 07:52:00,44.0,44.0,30.17,SW,231,1.0,4.0,99,99.99,,,-99.99,,2013-03-05 12:52:00,
2013-03-05 08:02:00,46.0,46.0,30.18,North,0,0.0,0.0,99,99.99,,,-99.99,,2013-03-05 13:02:00,
2013-03-05 08:11:00,46.0,46.0,30.18,North,0,0.0,0.0,99,99.99,,,-99.99,,2013-03-05 13:11:00,
2013-03-05 08:22:00,48.0,48.0,30.18,North,0,0.0,0.0,100,99.99,,,-99.99,,2013-03-05 13:22:00,
2013-03-05 08:32:00,50.0,50.0,30.19,SW,228,2.0,4.0,100,99.99,,,-99.99,,2013-03-05 13:32:00,
2013-03-05 08:42:00,50.0,50.0,30.19,SW,228,2.0,4.0,100,99.99,,,-99.99,,2013-03-05 13:42:00,
2013-03-05 08:52:00,54.0,50.0,30.18,SSW,204,4.0,6.0,86,99.99,,,-99.99,,2013-03-05 13:52:00,
2013-03-05 09:02:00,59.0,49.0,30.19,SSW,194,5.0,8.0,70,99.99,,,-99.99,,2013-03-05 14:02:00,
2013-03-05 09:11:00,59.0,49.0,30.19,SSW,194,5.0,8.0,70,99.99,,,-99.99,,2013-03-05 14:11:00,
2013-03-05 09:22:00,62.0,48.0,30.18,WSW,239,7.0,12.0,61,99.99,,,-99.99,,2013-03-05 14:22:00,
2013-03-05 09:32:00,64.0,47.0,30.18,SSW,203,8.0,11.0,55,99.99,,,-99.99,,2013-03-05 14:32:00,
2013-03-05 09:42:00,64.0,47.0,30.18,SSW,203,8.0,11.0,55,99.99,,,-99.99,,2013-03-05 14:42:00,
2013-03-05 09:52:00,66.0,47.0,30.18,SW,233,5.0,10.0,50,99.99,,,-99.99,,2013-03-05 14:52:00,
2013-03-05 10:02:00,68.0,48.0,30.18,WSW,240,6.0,9.0,49,99.99,,,-99.99,,2013-03-05 15:02:00,
2013-03-05 10:11:00,68.0,48.0,30.18,WSW,240,6.0,9.0,49,99.99,,,-99.99,,2013-03-05 15:11:00,
2013-03-05 10:21:00,69.0,50.0,30.18,SW,231,6.0,12.0,50,99.99,,,-99.99,,2013-03-05 15:21:00,
2013-03-05 10:32:00,70.0,50.0,30.17,SSW,210,6.0,12.0,49,99.99,,,-99.99,,2013-03-05 15:32:00,
2013-03-05 10:42:00,70.0,50.0,30.17,SSW,210,6.0,12.0,49,99.99,,,-99.99,,2013-03-05 15:42:00,
2013-03-05 10:52:00,71.0,50.0,30.17,SW,222,8.0,13.0,47,99.99,,,-99.99,,2013-03-05 15:52:00,
2013-03-05 11:01:00,72.0,50.0,30.17,SW,221,7.0,12.0,46,99.99,,,-99.99,,2013-03-05 16:01:00,
2013-03-05 11:11:00,72.0,50.0,30.17,SW,221,7.0,12.0,46,99.99,,,-99.99,,2013-03-05 16:11:00,
2013-03-05 11:21:00,73.0,49.0,30.17,WSW,245,6.0,11.0,43,99.99,,,-99.99,,2013-03-05 16:21:00,
2013-03-05 11:32:00,74.0,49.0,30.17,SW,228,8.0,11.0,42,99.99,,,-99.99,,2013-03-05 16:32:00,
2013-03-05 11:42:00,74.0,49.0,30.17,SW,228,8.0,11.0,42,99.99,,,-99.99,,2013-03-05 16:42:00,
2013-03-05 11:52:00,74.0,48.0,30.16,SW,233,9.0,16.0,40,99.99,,,-99.99,,2013-03-05 16:52:00,
2013-03-05 12:01:00,75.0,48.0,30.15,South,190,8.0,13.0,38,99.99,,,-99.99,,2013-03-05 17:01:00,
2013-03-05 12:11:00,75.0,48.0,30.15,South,190,8.0,13.0,38,99.99,,,-99.99,,2013-03-05 17:11:00,
2013-03-05 12:21:00,75.0,48.0,30.14,SSW,197,6.0,12.0,38,99.99,,,-99.99,,2013-03-05 17:21:00,
2013-03-05 12:32:00,77.0,48.0,30.14,SW,221,7.0,13.0,36,99.99,,,-99.99,,2013-03-05 17:32:00,
2013-03-05 12:42:00,77.0,48.0,30.14,SW,221,7.0,13.0,36,99.99,,,-99.99,,2013-03-05 17:42:00,
2013-03-05 12:53:00,78.0,47.0,30.13,SW,236,8.0,16.0,34,99.99,,,-99.99,,2013-03-05 17:53:00,
2013-03-05 13:02:00,78.0,47.0,30.13,West,273,6.0,13.0,33,99.99,,,-99.99,,2013-03-05 18:02:00,
2013-03-05 13:11:00,78.0,47.0,30.13,West,273,6.0,13.0,33,99.99,,,-99.99,,2013-03-05 18:11:00,
2013-03-05 13:22:00,79.0,47.0,30.11,SW,224,6.0,9.0,33,99.99,,,-99.99,,2013-03-05 18:22:00,
2013-03-05 13:32:00,79.0,45.0,30.11,West,269,4.0,10.0,30,99.99,,,-99.99,,2013-03-05 18:32:00,
2013-03-05 13:42:00,79.0,45.0,30.11,West,269,4.0,10.0,30,99.99,,,-99.99,,2013-03-05 18:42:00,
2013-03-05 13:53:00,80.0,46.0,30.10,WSW,239,8.0,15.0,30,99.99,,,-99.99,,2013-03-05 18:53:00,
2013-03-05 14:01:00,79.0,45.0,30.09,WSW,238,4.0,10.0,30,99.99,,,-99.99,,2013-03-05 19:01:00,
2013-03-05 14:11:00,79.0,45.0,30.09,WSW,238,4.0,10.0,30,99.99,,,-99.99,,2013-03-05 19:11:00,
2013-03-05 14:21:00,80.0,43.0,30.09,SW,215,9.0,16.0,27,99.99,,,-99.99,,2013-03-05 19:21:00,
2013-03-05 14:32:00,81.0,43.0,30.08,SSW,195,9.0,16.0,26,99.99,,,-99.99,,2013-03-05 19:32:00,
2013-03-05 14:42:00,81.0,43.0,30.08,SSW,195,9.0,16.0,26,99.99,,,-99.99,,2013-03-05 19:42:00,
2013-03-05 14:52:00,82.0,43.0,30.07,SW,226,8.0,13.0,25,99.99,,,-99.99,,2013-03-05 19:52:00,
2013-03-05 15:01:00,81.0,44.0,30.07,SW,228,5.0,8.0,27,99.99,,,-99.99,,2013-03-05 20:01:00,
2013-03-05 15:11:00,82.0,44.0,30.07,West,269,8.0,14.0,26,99.99,,,-99.99,,2013-03-05 20:11:00,
2013-03-05 15:22:00,82.0,44.0,30.07,West,269,8.0,14.0,26,99.99,,,-99.99,,2013-03-05 20:22:00,
2013-03-05 15:32:00,80.0,44.0,30.07,WSW,257,4.0,8.0,28,99.99,,,-99.99,,2013-03-05 20:32:00,
2013-03-05 15:42:00,80.0,44.0,30.07,WSW,257,4.0,8.0,28,99.99,,,-99.99,,2013-03-05 20:42:00,
2013-03-05 15:52:00,79.0,43.0,30.06,WNW,283,6.0,9.0,28,99.99,,,-99.99,,2013-03-05 20:52:00,
2013-03-05 16:02:00,79.0,43.0,30.06,West,276,9.0,15.0,28,99.99,,,-99.99,,2013-03-05 21:02:00,
2013-03-05 16:11:00,79.0,43.0,30.06,West,276,9.0,15.0,28,99.99,,,-99.99,,2013-03-05 21:11:00,
2013-03-05 16:22:00,79.0,43.0,30.06,West,266,7.0,11.0,28,99.99,,,-99.99,,2013-03-05 21:22:00,
2013-03-05 16:32:00,80.0,44.0,30.06,West,270,8.0,13.0,28,99.99,,,-99.99,,2013-03-05 21:32:00,
2013-03-05 16:42:00,80.0,44.0,30.06,West,270,8.0,13.0,28,99.99,,,-99.99,,2013-03-05 21:42:00,
2013-03-05 16:52:00,79.0,45.0,30.06,WNW,287,7.0,12.0,30,99.99,,,-99.99,,2013-03-05 21:52:00,
2013-03-05 17:01:00,79.0,46.0,30.06,West,278,6.0,10.0,31,99.99,,,-99.99,,2013-03-05 22:01:00,
2013-03-05 17:11:00,79.0,46.0,30.06,West,278,6.0,10.0,31,99.99,,,-99.99,,2013-03-05 22:11:00,
2013-03-05 17:22:00,78.0,47.0,30.06,West,269,7.0,12.0,33,99.99,,,-99.99,,2013-03-05 22:22:00,
2013-03-05 17:32:00,77.0,46.0,30.07,NNW,329,7.0,14.0,34,99.99,,,-99.99,,2013-03-05 22:32:00,
2013-03-05 17:42:00,77.0,46.0,30.07,NNW,329,7.0,14.0,34,99.99,,,-99.99,,2013-03-05 22:42:00,
2013-03-05 17:52:00,76.0,46.0,30.07,West,270,7.0,12.0,35,99.99,,,-99.99,,2013-03-05 22:52:00,
2013-03-05 18:01:00,75.0,45.0,30.07,West,281,7.0,14.0,35,99.99,,,-99.99,,2013-03-05 23:01:00,
2013-03-05 18:11:00,75.0,45.0,30.07,West,281,7.0,14.0,35,99.99,,,-99.99,,2013-03-05 23:11:00,
2013-03-05 18:21:00,74.0,46.0,30.07,NW,305,5.0,9.0,37,99.99,,,-99.99,,2013-03-05 23:21:00,
2013-03-05 18:32:00,73.0,46.0,30.07,NW,307,5.0,8.0,38,99.99,,,-99.99,,2013-03-05 23:32:00,
2013-03-05 18:42:00,73.0,46.0,30.07,NW,307,5.0,8.0,38,99.99,,,-99.99,,2013-03-05 23:42:00,
2013-03-05 18:53:00,72.0,46.0,30.07,WNW,283,4.0,6.0,39,99.99,,,-99.99,,2013-03-05 23:53:00,
2013-03-05 19:01:00,70.0,45.0,30.07,West,281,4.0,7.0,40,99.99,,,-99.99,,2013-03-06 00:01:00,
2013-03-05 19:11:00,70.0,45.0,30.07,West,281,4.0,7.0,40,99.99,,,-99.99,,2013-03-06 00:11:00,
2013-03-05 19:21:00,69.0,45.0,30.07,WNW,287,4.0,6.0,42,99.99,,,-99.99,,2013-03-06 00:21:00,
2013-03-05 19:32:00,68.0,45.0,30.06,WSW,245,4.0,6.0,44,99.99,,,-99.99,,2013-03-06 00:32:00,
2013-03-05 19:42:00,68.0,45.0,30.06,WSW,245,4.0,6.0,44,99.99,,,-99.99,,2013-03-06 00:42:00,
2013-03-05 19:52:00,66.0,46.0,30.07,West,276,4.0,7.0,48,99.99,,,-99.99,,2013-03-06 00:52:00,
2013-03-05 20:02:00,66.0,47.0,30.07,WNW,284,5.0,8.0,50,99.99,,,-99.99,,2013-03-06 01:02:00,
2013-03-05 20:11:00,66.0,47.0,30.07,WNW,284,5.0,8.0,50,99.99,,,-99.99,,2013-03-06 01:11:00,
2013-03-05 20:21:00,65.0,47.0,30.07,West,281,5.0,8.0,53,99.99,,,-99.99,,2013-03-06 01:21:00,
2013-03-05 20:32:00,65.0,49.0,30.07,WNW,285,4.0,8.0,57,99.99,,,-99.99,,2013-03-06 01:32:00,
2013-03-05 20:42:00,65.0,49.0,30.07,WNW,285,4.0,8.0,57,99.99,,,-99.99,,2013-03-06 01:42:00,
2013-03-05 20:52:00,64.0,50.0,30.08,WSW,243,6.0,9.0,60,99.99,,,-99.99,,2013-03-06 01:52:00,
2013-03-05 21:01:00,64.0,51.0,30.08,West,259,5.0,9.0,63,99.99,,,-99.99,,2013-03-06 02:01:00,
2013-03-05 21:11:00,64.0,51.0,30.08,West,259,5.0,9.0,63,99.99,,,-99.99,,2013-03-06 02:11:00,
2013-03-05 21:22:00,63.0,52.0,30.08,West,259,5.0,9.0,68,99.99,,,-99.99,,2013-03-06 02:22:00,
2013-03-05 21:32:00,62.0,53.0,30.08,WSW,255,5.0,7.0,72,99.99,,,-99.99,,2013-03-06 02:32:00,
2013-03-05 21:42:00,62.0,53.0,30.08,WSW,255,5.0,7.0,72,99.99,,,-99.99,,2013-03-06 02:42:00,
2013-03-05 21:52:00,62.0,54.0,30.07,SW,235,5.0,8.0,75,99.99,,,-99.99,,2013-03-06 02:52:00,
2013-03-05 22:02:00,61.0,54.0,30.07,WSW,250,5.0,9.0,77,99.99,,,-99.99,,2013-03-06 03:02:00,
2013-03-05 22:11:00,61.0,54.0,30.07,WSW,250,5.0,9.0,77,99.99,,,-99.99,,2013-03-06 03:11:00,
2013-03-05 22:22:00,61.0,54.0,30.07,SW,231,6.0,9.0,79,99.99,,,-99.99,,2013-03-06 03:22:00,
2013-03-05 22:32:00,60.0,54.0,30.06,WSW,249,6.0,9.0,80,99.99,,,-99.99,,2013-03-06 03:32:00,
2013-03-05 22:42:00,60.0,54.0,30.06,WSW,249,6.0,9.0,80,99.99,,,-99.99,,2013-03-06 03:42:00,
2013-03-05 22:52:00,60.0,54.0,30.06,SW,233,6.0,10.0,81,99.99,,,-99.99,,2013-03-06 03:52:00,
2013-03-05 23:02:00,60.0,55.0,30.06,WSW,243,5.0,8.0,83,99.99,,,-99.99,,2013-03-06 04:02:00,
2013-03-05 23:11:00,60.0,55.0,30.06,WSW,243,5.0,8.0,83,99.99,,,-99.99,,2013-03-06 04:11:00,
2013-03-05 23:22:00,60.0,55.0,30.06,West,277,4.0,7.0,84,99.99,,,-99.99,,2013-03-06 04:22:00,
2013-03-05 23:32:00,60.0,56.0,30.05,SW,228,7.0,12.0,87,99.99,,,-99.99,,2013-03-06 04:32:00,
2013-03-05 23:42:00,60.0,56.0,30.05,SW,228,7.0,12.0,87,99.99,,,-99.99,,2013-03-06 04:42:00,
2013-03-05 23:52:00,60.0,56.0,30.05,SW,228,7.0,10.0,88,99.99,,,-99.99,,2013-03-06 04:52:00,